Weather past 2 weeks in Adamstown, Pitcairn Islands

Now
76 °F

Partly sunny.


Feels Like: 78 °F
Forecast: 71 / 75 °F
Wind: 10 mph from Southeast

Location: Rikitea

Current Time: Nov 28, 2014 at 1:49:40 PM

Latest Report: Nov 28, 2014 at 12:00 PM


Visibility: 19 mi

Pressure: 29.92 "Hg

Humidity: 63%

Dew point: 63 °F

Location of AdamstownLocation

Historic Weather in Adamstown — Graph

°F

Adamstown temperature yesterday

Maximum temperature yesterday: 77 °F (at 1:00 PM)
Minimum temperature yesterday: 67 °F (at 4:00 AM)
Average temperature yesterday: 72 °F

Past Weeks' High & Low Weather Summary

 TemperatureHumidityPressure
High80 °F (Nov 16, 2:00 PM)97% (Nov 24, 5:00 PM)30.11 "Hg (Nov 24, 5:00 PM)
Low65 °F (Nov 24, 6:00 PM)60% (Nov 13, 12:00 PM)29.86 "Hg (Nov 27, 3:00 AM)
Average72 °F79%30.00 "Hg
* Reported Nov 13 12:00 Noon — Nov 28 12:00 Noon, Adamstown, Weather by CustomWeather, © 2014

Note: Actual official high and low records may vary slightly from our data, if they occured in-between our weather recording intervals... More about our weather records

Advertising

Adamstown weather history for previous 24 hours

 ConditionsComfort  
Time TempWeatherWind HumidityBarometerVisibility
12:00 PM
Nov 28
76 °FPartly sunny.10 mph63%29.92 "Hg19 mi
11:00 AM76 °FMild.10 mph61%29.93 "HgN/A
10:00 AM74 °FScattered clouds.12 mph66%29.93 "Hg19 mi
9:00 AM72 °FPartly sunny.12 mph67%29.94 "Hg19 mi
8:00 AM71 °FPartly sunny.14 mph68%29.92 "Hg19 mi
7:00 AM70 °FPartly sunny.13 mph75%29.91 "Hg19 mi
6:00 AM69 °FMild.12 mph75%29.90 "HgN/A
5:00 AM69 °FMild.14 mph75%29.88 "HgN/A
4:00 AM69 °FMild.14 mph73%29.88 "HgN/A
3:00 AM70 °FMild.15 mph73%29.88 "HgN/A
2:00 AM70 °FMild.14 mph76%29.90 "HgN/A
1:00 AM70 °FMild.13 mph77%29.93 "HgN/A
12:00 AM70 °FMild.14 mph75%29.94 "HgN/A
11:00 PM
Nov 27
70 °FMild.14 mph75%29.94 "HgN/A
10:00 PM71 °FMild.15 mph77%29.95 "HgN/A
9:00 PM71 °FMild.13 mph79%29.93 "HgN/A
8:00 PM71 °FMild.14 mph78%29.92 "HgN/A
7:00 PM71 °FMild.15 mph77%29.88 "HgN/A
6:00 PM73 °FPassing clouds.14 mph75%29.86 "Hg31 mi
5:00 PM73 °FPassing clouds.15 mph73%29.86 "Hg31 mi
4:00 PM75 °FScattered clouds.15 mph72%29.86 "Hg31 mi
3:00 PM77 °FPassing clouds.13 mph67%29.86 "Hg31 mi
2:00 PM77 °FPassing clouds.12 mph68%29.88 "Hg31 mi
1:00 PM77 °FPassing clouds.12 mph68%29.90 "Hg25 mi
Weather by CustomWeather, © 2014

See weather overviewHow to use our weather pages